CZ-4C R/B, 43264

Orbit data source: Space-Track

CZ-4C R/B, 43264 is space debris in SSO originally from a launch on Sat, 31 Mar 2018 UTC launched from the Taiyaun Space Center, China (TSC). Debris objects in space refer to the collection of defunct objects orbiting the Earth. Examples of debris include non-operational satellites, rocket bodies, and fragments generated from explosions, collisions, or faulty payload assembly.

Loading next visibility...
CZ-4C R/B details
Identifier
43264, 2018-031F
Orbit
SSO
Last TLE update6 hours ago
Origin
Flag of CNCNSA (CN / PRC)
ManufacturerSAST
MissionSpacecraft
Bus & MotorCZ-4 STAGE 3, Unknown motor
Mass~1,000 kg wet, ~1,000 kg dry
Launch date (UTC)
2018-03-31 (7 years ago)
Launch vehicleUnknown
Launch site
Taiyaun Space Center, China (TSC)
Object type
Payload
Rocket body
Debris
Shape & HBRCyl, 2.9 m
Radar Cross Section7.676 m², Large (>1 m²)

Expand to show TLE details & history

TLE from 6 hours ago
0 CZ-4C R/B
1 43264U 18031F   25044.38266739  .00009478  00000-0  45496-3 0  9990
2 43264  98.1733 281.9770 0090620 274.8649  84.2239 15.15489743377016
Epoch: 2025-02-13T09:11Z
Definitive object data (Epoch: 2025-02-13T09:11:02.462Z)
Latitude-0.00006°
Longitude0.55717°
Altitude516.823 km
Speed7.608 km/s
True Right ascension18h 47m 54s
True Declination0° 00' 00"
Sunlit
Object was in daylight at TLE epoch
Visualization TLE readout
Latitude-35.07522°
Longitude6.59027°
Altitude492.951 km
Speed7.639 km/s
Apparent Right ascension23h 03m 14s
Apparent Declination-76° 56' 23"
Sunlit
Object is in daylight
Visualization observer readout
Local Sidereal Time17:57:15
Azimuth164.287° S
Elevation-35.774°
Doppler factor1
Orbital elements
Apogee altitude578.977 km
Perigee altitude454.019 km
Semi-major axis6,894.635 km
Eccentricity0.009062
Inclination98.1733°
RAAN281.977°
Arg. of periapsis274.8649°
True anomaly85.25818°
Mean anomaly84.2239°
Eccentric anomaly84.74093°
Mean motion3.7912 °/min
BSTAR0.00045496
Orbital period94.96 mins
Loading maneuver chart data...
Loading historical data...
Loading historical data...
Loading historical data...
Loading historical data...
Loading historical data...
Loading historical data...
Loading historical data...

CZ-4C R/B Visibility forecast

Observer location: undefined°, undefined

Span
Click to sort rows by Start time (UTC) header in descending order
Start Az.
Max El. time (UTC)
Max El. Az.
Max El.
End time (UTC)
End Az.
7 mins2025-02-13 15:39:04.930Z161.452° S2025-02-13 15:42:04.930Z79.57° E44.579°2025-02-13 15:46:04.930Z349.445° N
6 mins2025-02-14 04:47:04.930Z4.248° NNE2025-02-14 04:49:04.930Z300.291° NW43.592°2025-02-14 04:53:04.930Z200.722° SSW
|